owner,sensor,date,latitude,longitude,vertical_datum,wind_speed,wind_to_direction,wind_speed_of_gust,qcFlag 
COMPS,ioos:station:USF.COMPS:ARP:1,2017-06-01T00:00:00Z,28.4330,-82.6670,10.0,2.42,317.99,4.5,'1111122,1111122,1111122' 
COMPS,ioos:station:USF.COMPS:ARP:1,2017-06-01T00:06:00Z,28.4330,-82.6670,10.0,1.52,324.3,3.23,'1111122,1111122,1111122' 
COMPS,ioos:station:USF.COMPS:ARP:1,2017-06-01T00:12:00Z,28.4330,-82.6670,10.0,1.48,324.49,3.52,'1111122,1111122,1111122' 
COMPS,ioos:station:USF.COMPS:ARP:1,2017-06-01T00:18:00Z,28.4330,-82.6670,10.0,1.97,309.16,3.72,'1111122,1111122,1111122' 
COMPS,ioos:station:USF.COMPS:ARP:1,2017-06-01T00:24:00Z,28.4330,-82.6670,10.0,1.29,321.36,2.74,'1111122,1111122,1111122' 
COMPS,ioos:station:USF.COMPS:ARP:1,2017-06-01T00:30:00Z,28.4330,-82.6670,10.0,1.2,312.92,2.64,'1111122,1111122,1111122' 
COMPS,ioos:station:USF.COMPS:ARP:1,2017-06-01T00:36:00Z,28.4330,-82.6670,10.0,1.33,312.71,2.35,'1111122,1111122,1111122' 
COMPS,ioos:station:USF.COMPS:ARP:1,2017-06-01T00:42:00Z,28.4330,-82.6670,10.0,0.9,338.36,1.86,'1111122,1111122,1111122' 
COMPS,ioos:station:USF.COMPS:ARP:1,2017-06-01T00:48:00Z,28.4330,-82.6670,10.0,0.82,334.39,2.05,'1111122,1111122,1111122' 
COMPS,ioos:station:USF.COMPS:ARP:1,2017-06-01T00:54:00Z,28.4330,-82.6670,10.0,0.8,333.86,1.56,'1111122,1111122,1111122' 
COMPS,ioos:station:USF.COMPS:ARP:1,2017-06-01T01:00:00Z,28.4330,-82.6670,10.0,0.94,339.36,2.35,'1111122,1111122,1111122' 
COMPS,ioos:station:USF.COMPS:ARP:1,2017-06-01T01:06:00Z,28.4330,-82.6670,10.0,0.81,333.53,1.76,'1111122,1111122,1111122' 
COMPS,ioos:station:USF.COMPS:ARP:1,2017-06-01T01:12:00Z,28.4330,-82.6670,10.0,1.05,331.25,2.84,'1111122,1111122,1111122' 
COMPS,ioos:station:USF.COMPS:ARP:1,2017-06-01T01:18:00Z,28.4330,-82.6670,10.0,0.85,337.56,2.35,'1111122,1111122,1111122' 
COMPS,ioos:station:USF.COMPS:ARP:1,2017-06-01T01:24:00Z,28.4330,-82.6670,10.0,0.69,343.09,2.35,'1111122,1111122,1111122' 
COMPS,ioos:station:USF.COMPS:ARP:1,2017-06-01T01:30:00Z,28.4330,-82.6670,10.0,0.45,16.99,1.76,'1111122,1111122,1111122' 
COMPS,ioos:station:USF.COMPS:ARP:1,2017-06-01T01:36:00Z,28.4330,-82.6670,10.0,0.77,16.39,2.74,'1111122,1111122,1111122' 
COMPS,ioos:station:USF.COMPS:ARP:1,2017-06-01T01:42:00Z,28.4330,-82.6670,10.0,0.64,26.3,1.86,'1111122,1111122,1111122' 
COMPS,ioos:station:USF.COMPS:ARP:1,2017-06-01T01:48:00Z,28.4330,-82.6670,10.0,0.29,51.2,1.46,'1111122,1111122,1111122' 
COMPS,ioos:station:USF.COMPS:ARP:1,2017-06-01T01:54:00Z,28.4330,-82.6670,10.0,0.27,20.83,1.56,'1111122,1111122,1111122' 
COMPS,ioos:station:USF.COMPS:ARP:1,2017-06-01T02:00:00Z,28.4330,-82.6670,10.0,0.76,51.74,1.76,'1111122,1111122,1111122' 
COMPS,ioos:station:USF.COMPS:ARP:1,2017-06-01T02:06:00Z,28.4330,-82.6670,10.0,0.98,70.98,1.46,'1111122,1111122,1111122' 
COMPS,ioos:station:USF.COMPS:ARP:1,2017-06-01T02:12:00Z,28.4330,-82.6670,10.0,0.94,82.88,1.27,'1111122,1111122,1111122' 
COMPS,ioos:station:USF.COMPS:ARP:1,2017-06-01T02:18:00Z,28.4330,-82.6670,10.0,0.77,92.89,1.07,'1111122,1111122,1111122' 
COMPS,ioos:station:USF.COMPS:ARP:1,2017-06-01T02:24:00Z,28.4330,-82.6670,10.0,0.5,96.71,1.07,'1111122,1111122,1111122' 
COMPS,ioos:station:USF.COMPS:ARP:1,2017-06-01T02:30:00Z,28.4330,-82.6670,10.0,0.42,83.0,0.58,'1111122,1111122,1111122' 
COMPS,ioos:station:USF.COMPS:ARP:1,2017-06-01T02:36:00Z,28.4330,-82.6670,10.0,0.5,78.26,0.68,'1111122,1111122,1111122' 
COMPS,ioos:station:USF.COMPS:ARP:1,2017-06-01T02:42:00Z,28.4330,-82.6670,10.0,0.87,83.2,1.46,'1111122,1111122,1111122' 
COMPS,ioos:station:USF.COMPS:ARP:1,2017-06-01T02:48:00Z,28.4330,-82.6670,10.0,1.39,108.47,1.76,'1111122,1111122,1111122' 
COMPS,ioos:station:USF.COMPS:ARP:1,2017-06-01T02:54:00Z,28.4330,-82.6670,10.0,1.17,116.84,1.76,'1111122,1111122,1111122' 
COMPS,ioos:station:USF.COMPS:ARP:1,2017-06-01T03:00:00Z,28.4330,-82.6670,10.0,1.25,111.33,1.66,'1111122,1111122,1111122' 
COMPS,ioos:station:USF.COMPS:ARP:1,2017-06-01T03:06:00Z,28.4330,-82.6670,10.0,1.08,87.21,1.56,'1111122,1111122,1111122' 
COMPS,ioos:station:USF.COMPS:ARP:1,2017-06-01T03:12:00Z,28.4330,-82.6670,10.0,0.96,97.22,1.37,'1111122,1111122,1111122' 
COMPS,ioos:station:USF.COMPS:ARP:1,2017-06-01T03:18:00Z,28.4330,-82.6670,10.0,0.91,96.44,1.17,'1111122,1111122,1111122' 
COMPS,ioos:station:USF.COMPS:ARP:1,2017-06-01T03:24:00Z,28.4330,-82.6670,10.0,1.01,89.67,1.46,'1111122,1111122,1111122' 
COMPS,ioos:station:USF.COMPS:ARP:1,2017-06-01T03:30:00Z,28.4330,-82.6670,10.0,0.73,77.56,1.07,'1111122,1111122,1111122' 
COMPS,ioos:station:USF.COMPS:ARP:1,2017-06-01T03:36:00Z,28.4330,-82.6670,10.0,1.21,94.95,1.56,'1111122,1111122,1111122' 
COMPS,ioos:station:USF.COMPS:ARP:1,2017-06-01T03:42:00Z,28.4330,-82.6670,10.0,1.04,82.12,1.56,'1111122,1111122,1111122' 
COMPS,ioos:station:USF.COMPS:ARP:1,2017-06-01T03:48:00Z,28.4330,-82.6670,10.0,0.71,75.13,1.07,'1111122,1111122,1111122' 
COMPS,ioos:station:USF.COMPS:ARP:1,2017-06-01T03:54:00Z,28.4330,-82.6670,10.0,0.62,71.21,0.88,'1111122,1111122,1111122' 
COMPS,ioos:station:USF.COMPS:ARP:1,2017-06-01T04:00:00Z,28.4330,-82.6670,10.0,0.49,102.4,0.78,'1111122,1111122,1111122' 
COMPS,ioos:station:USF.COMPS:ARP:1,2017-06-01T04:06:00Z,28.4330,-82.6670,10.0,1.14,114.29,1.66,'1111122,1111122,1111122' 
COMPS,ioos:station:USF.COMPS:ARP:1,2017-06-01T04:12:00Z,28.4330,-82.6670,10.0,1.62,116.79,2.15,'1111122,1111122,1111122' 
COMPS,ioos:station:USF.COMPS:ARP:1,2017-06-01T04:18:00Z,28.4330,-82.6670,10.0,1.15,96.58,1.56,'1111122,1111122,1111122' 
COMPS,ioos:station:USF.COMPS:ARP:1,2017-06-01T04:24:00Z,28.4330,-82.6670,10.0,1.06,89.51,1.37,'1111122,1111122,1111122' 
COMPS,ioos:station:USF.COMPS:ARP:1,2017-06-01T04:30:00Z,28.4330,-82.6670,10.0,1.18,107.41,1.37,'1111122,1111122,1111122' 
COMPS,ioos:station:USF.COMPS:ARP:1,2017-06-01T04:36:00Z,28.4330,-82.6670,10.0,0.96,97.33,1.46,'1111122,1111122,1111122' 
COMPS,ioos:station:USF.COMPS:ARP:1,2017-06-01T04:42:00Z,28.4330,-82.6670,10.0,1.0,100.83,1.27,'1111122,1111122,1111122' 
COMPS,ioos:station:USF.COMPS:ARP:1,2017-06-01T04:48:00Z,28.4330,-82.6670,10.0,1.27,113.68,1.76,'1111122,1111122,1111122' 
COMPS,ioos:station:USF.COMPS:ARP:1,2017-06-01T04:54:00Z,28.4330,-82.6670,10.0,1.18,102.53,1.86,'1111122,1111122,1111122' 
COMPS,ioos:station:USF.COMPS:ARP:1,2017-06-01T05:00:00Z,28.4330,-82.6670,10.0,0.98,100.87,1.56,'1111122,1111122,1111122' 
COMPS,ioos:station:USF.COMPS:ARP:1,2017-06-01T05:06:00Z,28.4330,-82.6670,10.0,1.3,119.96,2.25,'1111122,1111122,1111122' 
COMPS,ioos:station:USF.COMPS:ARP:1,2017-06-01T05:12:00Z,28.4330,-82.6670,10.0,1.81,112.86,3.23,'1111122,1111122,1111122' 
COMPS,ioos:station:USF.COMPS:ARP:1,2017-06-01T05:18:00Z,28.4330,-82.6670,10.0,1.18,122.23,2.15,'1111122,1111122,1111122' 
COMPS,ioos:station:USF.COMPS:ARP:1,2017-06-01T05:24:00Z,28.4330,-82.6670,10.0,1.69,128.33,3.33,'1111122,1111122,1111122' 
COMPS,ioos:station:USF.COMPS:ARP:1,2017-06-01T05:30:00Z,28.4330,-82.6670,10.0,1.61,113.6,3.33,'1111122,1111122,1111122' 
COMPS,ioos:station:USF.COMPS:ARP:1,2017-06-01T05:36:00Z,28.4330,-82.6670,10.0,1.23,105.52,2.15,'1111122,1111122,1111122' 
COMPS,ioos:station:USF.COMPS:ARP:1,2017-06-01T05:42:00Z,28.4330,-82.6670,10.0,0.92,111.31,1.95,'1111122,1111122,1111122' 
COMPS,ioos:station:USF.COMPS:ARP:1,2017-06-01T05:48:00Z,28.4330,-82.6670,10.0,1.2,107.14,1.86,'1111122,1111122,1111122' 
COMPS,ioos:station:USF.COMPS:ARP:1,2017-06-01T05:54:00Z,28.4330,-82.6670,10.0,0.71,110.14,0.97,'1111122,1111122,1111122' 
COMPS,ioos:station:USF.COMPS:ARP:1,2017-06-01T06:00:00Z,28.4330,-82.6670,10.0,0.81,111.91,1.27,'1111122,1111122,1111122' 
COMPS,ioos:station:USF.COMPS:ARP:1,2017-06-01T06:06:00Z,28.4330,-82.6670,10.0,0.71,117.08,1.17,'1111122,1111122,1111122' 
COMPS,ioos:station:USF.COMPS:ARP:1,2017-06-01T06:12:00Z,28.4330,-82.6670,10.0,0.82,113.01,1.37,'1111122,1111122,1111122' 
COMPS,ioos:station:USF.COMPS:ARP:1,2017-06-01T06:18:00Z,28.4330,-82.6670,10.0,0.65,122.86,0.97,'1111122,1111122,1111122' 
COMPS,ioos:station:USF.COMPS:ARP:1,2017-06-01T06:24:00Z,28.4330,-82.6670,10.0,0.64,112.88,1.17,'1111122,1111122,1111122' 
COMPS,ioos:station:USF.COMPS:ARP:1,2017-06-01T06:30:00Z,28.4330,-82.6670,10.0,0.9,108.48,1.27,'1111122,1111122,1111122' 
COMPS,ioos:station:USF.COMPS:ARP:1,2017-06-01T06:36:00Z,28.4330,-82.6670,10.0,1.04,100.47,1.27,'1111122,1111122,1111122' 
COMPS,ioos:station:USF.COMPS:ARP:1,2017-06-01T06:42:00Z,28.4330,-82.6670,10.0,1.16,107.63,1.46,'1111122,1111122,1111122' 
COMPS,ioos:station:USF.COMPS:ARP:1,2017-06-01T06:48:00Z,28.4330,-82.6670,10.0,1.46,109.88,1.95,'1111122,1111122,1111122' 
COMPS,ioos:station:USF.COMPS:ARP:1,2017-06-01T06:54:00Z,28.4330,-82.6670,10.0,1.23,115.25,2.05,'1111122,1111122,1111122' 
COMPS,ioos:station:USF.COMPS:ARP:1,2017-06-01T07:00:00Z,28.4330,-82.6670,10.0,1.4,118.02,2.35,'1111122,1111122,1111122' 
COMPS,ioos:station:USF.COMPS:ARP:1,2017-06-01T07:06:00Z,28.4330,-82.6670,10.0,1.29,116.87,2.15,'1111122,1111122,1111122' 
COMPS,ioos:station:USF.COMPS:ARP:1,2017-06-01T07:12:00Z,28.4330,-82.6670,10.0,1.83,109.42,2.54,'1111122,1111122,1111122' 
COMPS,ioos:station:USF.COMPS:ARP:1,2017-06-01T07:18:00Z,28.4330,-82.6670,10.0,1.63,108.3,2.64,'1111122,1111122,1111122' 
COMPS,ioos:station:USF.COMPS:ARP:1,2017-06-01T07:24:00Z,28.4330,-82.6670,10.0,1.47,109.93,2.15,'1111122,1111122,1111122' 
COMPS,ioos:station:USF.COMPS:ARP:1,2017-06-01T07:30:00Z,28.4330,-82.6670,10.0,1.35,110.91,1.86,'1111122,1111122,1111122' 
COMPS,ioos:station:USF.COMPS:ARP:1,2017-06-01T07:36:00Z,28.4330,-82.6670,10.0,1.51,106.57,2.05,'1111122,1111122,1111122' 
COMPS,ioos:station:USF.COMPS:ARP:1,2017-06-01T07:42:00Z,28.4330,-82.6670,10.0,1.05,109.24,1.56,'1111122,1111122,1111122' 
COMPS,ioos:station:USF.COMPS:ARP:1,2017-06-01T07:48:00Z,28.4330,-82.6670,10.0,1.02,110.32,1.76,'1111122,1111122,1111122' 
COMPS,ioos:station:USF.COMPS:ARP:1,2017-06-01T07:54:00Z,28.4330,-82.6670,10.0,0.96,101.23,1.56,'1111122,1111122,1111122' 
COMPS,ioos:station:USF.COMPS:ARP:1,2017-06-01T08:00:00Z,28.4330,-82.6670,10.0,1.21,112.01,1.56,'1111122,1111122,1111122' 
COMPS,ioos:station:USF.COMPS:ARP:1,2017-06-01T08:06:00Z,28.4330,-82.6670,10.0,1.07,142.63,2.05,'1111122,1111122,1111122' 
COMPS,ioos:station:USF.COMPS:ARP:1,2017-06-01T08:12:00Z,28.4330,-82.6670,10.0,0.64,153.76,1.76,'1111122,1111122,1111122' 
COMPS,ioos:station:USF.COMPS:ARP:1,2017-06-01T08:18:00Z,28.4330,-82.6670,10.0,0.8,157.92,1.95,'1111122,1111122,1111122' 
COMPS,ioos:station:USF.COMPS:ARP:1,2017-06-01T08:24:00Z,28.4330,-82.6670,10.0,0.84,178.71,1.86,'1111122,1111122,1111122' 
COMPS,ioos:station:USF.COMPS:ARP:1,2017-06-01T08:30:00Z,28.4330,-82.6670,10.0,0.92,145.64,1.76,'1111122,1111122,1111122' 
COMPS,ioos:station:USF.COMPS:ARP:1,2017-06-01T08:36:00Z,28.4330,-82.6670,10.0,0.72,121.41,1.17,'1111122,1111122,1111122' 
COMPS,ioos:station:USF.COMPS:ARP:1,2017-06-01T08:42:00Z,28.4330,-82.6670,10.0,0.74,111.75,1.17,'1111122,1111122,1111122' 
COMPS,ioos:station:USF.COMPS:ARP:1,2017-06-01T08:48:00Z,28.4330,-82.6670,10.0,0.81,119.21,1.46,'1111122,1111122,1111122' 
COMPS,ioos:station:USF.COMPS:ARP:1,2017-06-01T08:54:00Z,28.4330,-82.6670,10.0,1.1,105.41,1.66,'1111122,1111122,1111122' 
COMPS,ioos:station:USF.COMPS:ARP:1,2017-06-01T09:00:00Z,28.4330,-82.6670,10.0,1.19,103.86,1.76,'1111122,1111122,1111122' 
COMPS,ioos:station:USF.COMPS:ARP:1,2017-06-01T09:06:00Z,28.4330,-82.6670,10.0,1.27,108.63,1.76,'1111122,1111122,1111122' 
COMPS,ioos:station:USF.COMPS:ARP:1,2017-06-01T09:12:00Z,28.4330,-82.6670,10.0,0.71,118.79,1.27,'1111122,1111122,1111122' 
COMPS,ioos:station:USF.COMPS:ARP:1,2017-06-01T09:18:00Z,28.4330,-82.6670,10.0,0.81,98.93,1.37,'1111122,1111122,1111122' 
COMPS,ioos:station:USF.COMPS:ARP:1,2017-06-01T09:24:00Z,28.4330,-82.6670,10.0,0.69,108.34,1.27,'1111122,1111122,1111122' 
COMPS,ioos:station:USF.COMPS:ARP:1,2017-06-01T09:30:00Z,28.4330,-82.6670,10.0,1.24,102.68,1.66,'1111122,1111122,1111122' 
COMPS,ioos:station:USF.COMPS:ARP:1,2017-06-01T09:36:00Z,28.4330,-82.6670,10.0,0.87,119.83,1.86,'1111122,1111122,1111122' 
COMPS,ioos:station:USF.COMPS:ARP:1,2017-06-01T09:42:00Z,28.4330,-82.6670,10.0,1.45,104.25,2.25,'1111122,1111122,1111122' 
COMPS,ioos:station:USF.COMPS:ARP:1,2017-06-01T09:48:00Z,28.4330,-82.6670,10.0,1.4,107.23,1.95,'1111122,1111122,1111122' 
COMPS,ioos:station:USF.COMPS:ARP:1,2017-06-01T09:54:00Z,28.4330,-82.6670,10.0,1.3,107.89,2.05,'1111122,1111122,1111122' 
COMPS,ioos:station:USF.COMPS:ARP:1,2017-06-01T10:00:00Z,28.4330,-82.6670,10.0,1.18,108.07,1.66,'1111122,1111122,1111122' 
COMPS,ioos:station:USF.COMPS:ARP:1,2017-06-01T10:06:00Z,28.4330,-82.6670,10.0,1.35,110.19,1.66,'1111122,1111122,1111122' 
COMPS,ioos:station:USF.COMPS:ARP:1,2017-06-01T10:12:00Z,28.4330,-82.6670,10.0,0.95,117.33,1.66,'1111122,1111122,1111122' 
COMPS,ioos:station:USF.COMPS:ARP:1,2017-06-01T10:18:00Z,28.4330,-82.6670,10.0,1.04,110.33,1.66,'1111122,1111122,1111122' 
COMPS,ioos:station:USF.COMPS:ARP:1,2017-06-01T10:24:00Z,28.4330,-82.6670,10.0,1.54,109.54,2.05,'1111122,1111122,1111122' 
COMPS,ioos:station:USF.COMPS:ARP:1,2017-06-01T10:30:00Z,28.4330,-82.6670,10.0,1.23,111.78,1.76,'1111122,1111122,1111122' 
COMPS,ioos:station:USF.COMPS:ARP:1,2017-06-01T10:36:00Z,28.4330,-82.6670,10.0,0.83,125.83,1.37,'1111122,1111122,1111122' 
COMPS,ioos:station:USF.COMPS:ARP:1,2017-06-01T10:42:00Z,28.4330,-82.6670,10.0,1.23,115.78,2.15,'1111122,1111122,1111122' 
COMPS,ioos:station:USF.COMPS:ARP:1,2017-06-01T10:48:00Z,28.4330,-82.6670,10.0,1.33,121.28,2.35,'1111122,1111122,1111122' 
COMPS,ioos:station:USF.COMPS:ARP:1,2017-06-01T10:54:00Z,28.4330,-82.6670,10.0,1.08,118.06,2.54,'1111122,1111122,1111122' 
COMPS,ioos:station:USF.COMPS:ARP:1,2017-06-01T11:00:00Z,28.4330,-82.6670,10.0,1.18,121.21,2.05,'1111122,1111122,1111122' 
COMPS,ioos:station:USF.COMPS:ARP:1,2017-06-01T11:06:00Z,28.4330,-82.6670,10.0,1.01,125.49,1.95,'1111122,1111122,1111122' 
COMPS,ioos:station:USF.COMPS:ARP:1,2017-06-01T11:12:00Z,28.4330,-82.6670,10.0,1.12,116.36,2.25,'1111122,1111122,1111122' 
COMPS,ioos:station:USF.COMPS:ARP:1,2017-06-01T11:18:00Z,28.4330,-82.6670,10.0,0.97,125.12,1.86,'1111122,1111122,1111122' 
COMPS,ioos:station:USF.COMPS:ARP:1,2017-06-01T11:24:00Z,28.4330,-82.6670,10.0,1.02,120.0,1.95,'1111122,1111122,1111122' 
COMPS,ioos:station:USF.COMPS:ARP:1,2017-06-01T11:30:00Z,28.4330,-82.6670,10.0,1.31,121.15,2.05,'1111122,1111122,1111122' 
COMPS,ioos:station:USF.COMPS:ARP:1,2017-06-01T11:36:00Z,28.4330,-82.6670,10.0,1.04,117.29,1.86,'1111122,1111122,1111122' 
COMPS,ioos:station:USF.COMPS:ARP:1,2017-06-01T11:42:00Z,28.4330,-82.6670,10.0,1.18,116.84,1.95,'1111122,1111122,1111122' 
COMPS,ioos:station:USF.COMPS:ARP:1,2017-06-01T11:48:00Z,28.4330,-82.6670,10.0,1.32,100.8,2.15,'1111122,1111122,1111122' 
COMPS,ioos:station:USF.COMPS:ARP:1,2017-06-01T11:54:00Z,28.4330,-82.6670,10.0,1.51,106.9,2.15,'1111122,1111122,1111122' 
COMPS,ioos:station:USF.COMPS:ARP:1,2017-06-01T12:00:00Z,28.4330,-82.6670,10.0,1.57,106.71,2.74,'1111122,1111122,1111122' 
COMPS,ioos:station:USF.COMPS:ARP:1,2017-06-01T12:06:00Z,28.4330,-82.6670,10.0,1.41,123.32,2.74,'1111122,1111122,1111122' 
COMPS,ioos:station:USF.COMPS:ARP:1,2017-06-01T12:12:00Z,28.4330,-82.6670,10.0,1.2,128.26,2.25,'1111122,1111122,1111122' 
COMPS,ioos:station:USF.COMPS:ARP:1,2017-06-01T12:18:00Z,28.4330,-82.6670,10.0,1.6,129.72,3.42,'1111122,1111122,1111122' 
COMPS,ioos:station:USF.COMPS:ARP:1,2017-06-01T12:24:00Z,28.4330,-82.6670,10.0,1.7,126.53,3.33,'1111122,1111122,1111122' 
COMPS,ioos:station:USF.COMPS:ARP:1,2017-06-01T12:30:00Z,28.4330,-82.6670,10.0,1.29,131.69,2.74,'1111122,1111122,1111122' 
COMPS,ioos:station:USF.COMPS:ARP:1,2017-06-01T12:36:00Z,28.4330,-82.6670,10.0,1.65,129.37,3.62,'1111122,1111122,1111122' 
COMPS,ioos:station:USF.COMPS:ARP:1,2017-06-01T12:42:00Z,28.4330,-82.6670,10.0,1.61,115.83,3.13,'1111122,1111122,1111122' 
COMPS,ioos:station:USF.COMPS:ARP:1,2017-06-01T12:48:00Z,28.4330,-82.6670,10.0,1.27,132.48,2.35,'1111122,1111122,1111122' 
COMPS,ioos:station:USF.COMPS:ARP:1,2017-06-01T12:54:00Z,28.4330,-82.6670,10.0,0.63,167.78,1.46,'1111122,1111122,1111122' 
COMPS,ioos:station:USF.COMPS:ARP:1,2017-06-01T13:00:00Z,28.4330,-82.6670,10.0,1.16,154.97,2.45,'1111122,1111122,1111122' 
COMPS,ioos:station:USF.COMPS:ARP:1,2017-06-01T13:06:00Z,28.4330,-82.6670,10.0,1.5,129.59,2.74,'1111122,1111122,1111122' 
COMPS,ioos:station:USF.COMPS:ARP:1,2017-06-01T13:12:00Z,28.4330,-82.6670,10.0,1.39,132.61,2.54,'1111122,1111122,1111122' 
COMPS,ioos:station:USF.COMPS:ARP:1,2017-06-01T13:18:00Z,28.4330,-82.6670,10.0,1.27,126.14,2.15,'1111122,1111122,1111122' 
COMPS,ioos:station:USF.COMPS:ARP:1,2017-06-01T13:24:00Z,28.4330,-82.6670,10.0,1.54,113.65,2.74,'1111122,1111122,1111122' 
COMPS,ioos:station:USF.COMPS:ARP:1,2017-06-01T13:30:00Z,28.4330,-82.6670,10.0,0.87,117.29,1.76,'1111122,1111122,1111122' 
COMPS,ioos:station:USF.COMPS:ARP:1,2017-06-01T13:36:00Z,28.4330,-82.6670,10.0,0.91,141.25,2.25,'1111122,1111122,1111122' 
COMPS,ioos:station:USF.COMPS:ARP:1,2017-06-01T13:42:00Z,28.4330,-82.6670,10.0,0.63,207.9,1.95,'1111122,1111122,1111122' 
COMPS,ioos:station:USF.COMPS:ARP:1,2017-06-01T13:48:00Z,28.4330,-82.6670,10.0,0.92,185.47,3.91,'1111122,1111122,1111122' 
COMPS,ioos:station:USF.COMPS:ARP:1,2017-06-01T13:54:00Z,28.4330,-82.6670,10.0,1.87,92.05,3.23,'1111122,1111122,1111122' 
COMPS,ioos:station:USF.COMPS:ARP:1,2017-06-01T14:00:00Z,28.4330,-82.6670,10.0,1.67,112.22,3.03,'1111122,1111122,1111122' 
COMPS,ioos:station:USF.COMPS:ARP:1,2017-06-01T14:06:00Z,28.4330,-82.6670,10.0,1.26,125.28,3.33,'1111122,1111122,1111122' 
COMPS,ioos:station:USF.COMPS:ARP:1,2017-06-01T14:12:00Z,28.4330,-82.6670,10.0,0.92,120.31,2.35,'1111122,1111122,1111122' 
COMPS,ioos:station:USF.COMPS:ARP:1,2017-06-01T14:18:00Z,28.4330,-82.6670,10.0,0.91,99.05,2.05,'1111122,1111122,1111122' 
COMPS,ioos:station:USF.COMPS:ARP:1,2017-06-01T14:24:00Z,28.4330,-82.6670,10.0,0.69,150.8,2.05,'1111122,1111122,1111122' 
COMPS,ioos:station:USF.COMPS:ARP:1,2017-06-01T14:30:00Z,28.4330,-82.6670,10.0,1.35,251.54,1.95,'1111122,1111122,1111122' 
COMPS,ioos:station:USF.COMPS:ARP:1,2017-06-01T14:36:00Z,28.4330,-82.6670,10.0,1.68,232.87,2.64,'1111122,1111122,1111122' 
COMPS,ioos:station:USF.COMPS:ARP:1,2017-06-01T14:42:00Z,28.4330,-82.6670,10.0,1.93,315.3,2.64,'1111122,1111122,1111122' 
COMPS,ioos:station:USF.COMPS:ARP:1,2017-06-01T14:48:00Z,28.4330,-82.6670,10.0,1.08,301.83,1.66,'1111122,1111122,1111122' 
COMPS,ioos:station:USF.COMPS:ARP:1,2017-06-01T14:54:00Z,28.4330,-82.6670,10.0,0.87,309.44,1.95,'1111122,1111122,1111122' 
COMPS,ioos:station:USF.COMPS:ARP:1,2017-06-01T15:00:00Z,28.4330,-82.6670,10.0,2.12,315.33,2.93,'1111122,1111122,1111122' 
COMPS,ioos:station:USF.COMPS:ARP:1,2017-06-01T15:06:00Z,28.4330,-82.6670,10.0,2.79,307.85,4.5,'1111122,1111122,1111122' 
COMPS,ioos:station:USF.COMPS:ARP:1,2017-06-01T15:12:00Z,28.4330,-82.6670,10.0,3.6,305.91,4.6,'1111122,1111122,1111122' 
COMPS,ioos:station:USF.COMPS:ARP:1,2017-06-01T15:18:00Z,28.4330,-82.6670,10.0,3.87,305.62,4.6,'1111122,1111122,1111122' 
COMPS,ioos:station:USF.COMPS:ARP:1,2017-06-01T15:24:00Z,28.4330,-82.6670,10.0,3.88,304.97,4.5,'1111122,1111122,1111122' 
COMPS,ioos:station:USF.COMPS:ARP:1,2017-06-01T15:30:00Z,28.4330,-82.6670,10.0,3.44,307.35,4.21,'1111122,1111122,1111122' 
COMPS,ioos:station:USF.COMPS:ARP:1,2017-06-01T15:36:00Z,28.4330,-82.6670,10.0,3.12,305.97,4.01,'1111122,1111122,1111122' 
COMPS,ioos:station:USF.COMPS:ARP:1,2017-06-01T15:42:00Z,28.4330,-82.6670,10.0,2.94,303.65,3.72,'1111122,1111122,1111122' 
COMPS,ioos:station:USF.COMPS:ARP:1,2017-06-01T15:48:00Z,28.4330,-82.6670,10.0,3.06,303.25,4.11,'1111122,1111122,1111122' 
COMPS,ioos:station:USF.COMPS:ARP:1,2017-06-01T15:54:00Z,28.4330,-82.6670,10.0,3.13,301.31,3.72,'1111122,1111122,1111122' 
COMPS,ioos:station:USF.COMPS:ARP:1,2017-06-01T16:00:00Z,28.4330,-82.6670,10.0,3.13,303.07,4.11,'1111122,1111122,1111122' 
COMPS,ioos:station:USF.COMPS:ARP:1,2017-06-01T16:06:00Z,28.4330,-82.6670,10.0,2.86,307.11,3.82,'1111122,1111122,1111122' 
COMPS,ioos:station:USF.COMPS:ARP:1,2017-06-01T16:12:00Z,28.4330,-82.6670,10.0,3.44,305.45,4.11,'1111122,1111122,1111122' 
COMPS,ioos:station:USF.COMPS:ARP:1,2017-06-01T16:18:00Z,28.4330,-82.6670,10.0,3.69,305.34,4.7,'1111122,1111122,1111122' 
COMPS,ioos:station:USF.COMPS:ARP:1,2017-06-01T16:24:00Z,28.4330,-82.6670,10.0,3.75,305.29,4.41,'1111122,1111122,1111122' 
COMPS,ioos:station:USF.COMPS:ARP:1,2017-06-01T16:30:00Z,28.4330,-82.6670,10.0,3.78,304.8,4.6,'1111122,1111122,1111122' 
COMPS,ioos:station:USF.COMPS:ARP:1,2017-06-01T16:36:00Z,28.4330,-82.6670,10.0,3.67,305.52,4.7,'1111122,1111122,1111122' 
COMPS,ioos:station:USF.COMPS:ARP:1,2017-06-01T16:42:00Z,28.4330,-82.6670,10.0,3.68,304.52,4.6,'1111122,1111122,1111122' 
COMPS,ioos:station:USF.COMPS:ARP:1,2017-06-01T16:48:00Z,28.4330,-82.6670,10.0,3.23,311.35,4.11,'1111122,1111122,1111122' 
COMPS,ioos:station:USF.COMPS:ARP:1,2017-06-01T16:54:00Z,28.4330,-82.6670,10.0,3.95,305.05,4.6,'1111122,1111122,1111122' 
COMPS,ioos:station:USF.COMPS:ARP:1,2017-06-01T17:00:00Z,28.4330,-82.6670,10.0,3.94,303.01,5.09,'1111122,1111122,1111122' 
COMPS,ioos:station:USF.COMPS:ARP:1,2017-06-01T17:06:00Z,28.4330,-82.6670,10.0,3.84,305.43,4.7,'1111122,1111122,1111122' 
COMPS,ioos:station:USF.COMPS:ARP:1,2017-06-01T17:12:00Z,28.4330,-82.6670,10.0,4.08,304.93,5.09,'1111122,1111122,1111122' 
COMPS,ioos:station:USF.COMPS:ARP:1,2017-06-01T17:18:00Z,28.4330,-82.6670,10.0,4.21,302.8,5.29,'1111122,1111122,1111122' 
COMPS,ioos:station:USF.COMPS:ARP:1,2017-06-01T17:24:00Z,28.4330,-82.6670,10.0,4.44,305.58,5.29,'1111122,1111122,1111122' 
COMPS,ioos:station:USF.COMPS:ARP:1,2017-06-01T17:30:00Z,28.4330,-82.6670,10.0,4.4,306.75,5.29,'1111122,1111122,1111122' 
COMPS,ioos:station:USF.COMPS:ARP:1,2017-06-01T17:36:00Z,28.4330,-82.6670,10.0,4.64,300.49,5.58,'1111122,1111122,1111122' 
COMPS,ioos:station:USF.COMPS:ARP:1,2017-06-01T17:42:00Z,28.4330,-82.6670,10.0,4.6,303.87,5.39,'1111122,1111122,1111122' 
COMPS,ioos:station:USF.COMPS:ARP:1,2017-06-01T17:48:00Z,28.4330,-82.6670,10.0,4.79,301.32,6.07,'1111122,1111122,1111122' 
COMPS,ioos:station:USF.COMPS:ARP:1,2017-06-01T17:54:00Z,28.4330,-82.6670,10.0,4.77,298.64,5.48,'1111122,1111122,1111122' 
COMPS,ioos:station:USF.COMPS:ARP:1,2017-06-01T18:00:00Z,28.4330,-82.6670,10.0,4.69,297.76,5.78,'1111122,1111122,1111122' 
COMPS,ioos:station:USF.COMPS:ARP:1,2017-06-01T18:06:00Z,28.4330,-82.6670,10.0,4.82,302.65,6.17,'1111122,1111122,1111122' 
COMPS,ioos:station:USF.COMPS:ARP:1,2017-06-01T18:12:00Z,28.4330,-82.6670,10.0,5.12,298.93,6.17,'1111122,1111122,1111122' 
COMPS,ioos:station:USF.COMPS:ARP:1,2017-06-01T18:18:00Z,28.4330,-82.6670,10.0,4.98,299.13,6.07,'1111122,1111122,1111122' 
COMPS,ioos:station:USF.COMPS:ARP:1,2017-06-01T18:24:00Z,28.4330,-82.6670,10.0,4.75,299.93,5.97,'1111122,1111122,1111122' 
COMPS,ioos:station:USF.COMPS:ARP:1,2017-06-01T18:30:00Z,28.4330,-82.6670,10.0,4.75,300.59,6.07,'1111122,1111122,1111122' 
COMPS,ioos:station:USF.COMPS:ARP:1,2017-06-01T18:36:00Z,28.4330,-82.6670,10.0,4.43,300.07,5.39,'1111122,1111122,1111122' 
COMPS,ioos:station:USF.COMPS:ARP:1,2017-06-01T18:42:00Z,28.4330,-82.6670,10.0,4.52,300.5,6.17,'1111122,1111122,1111122' 
COMPS,ioos:station:USF.COMPS:ARP:1,2017-06-01T18:48:00Z,28.4330,-82.6670,10.0,4.42,306.04,5.78,'1111122,1111122,1111122' 
COMPS,ioos:station:USF.COMPS:ARP:1,2017-06-01T18:54:00Z,28.4330,-82.6670,10.0,3.74,295.11,4.7,'1111122,1111122,1111122' 
COMPS,ioos:station:USF.COMPS:ARP:1,2017-06-01T19:00:00Z,28.4330,-82.6670,10.0,4.31,299.49,5.39,'1111122,1111122,1111122' 
COMPS,ioos:station:USF.COMPS:ARP:1,2017-06-01T19:06:00Z,28.4330,-82.6670,10.0,4.36,300.41,5.48,'1111122,1111122,1111122' 
COMPS,ioos:station:USF.COMPS:ARP:1,2017-06-01T19:12:00Z,28.4330,-82.6670,10.0,4.6,301.81,5.48,'1111122,1111122,1111122' 
COMPS,ioos:station:USF.COMPS:ARP:1,2017-06-01T19:18:00Z,28.4330,-82.6670,10.0,4.35,299.96,5.48,'1111122,1111122,1111122' 
COMPS,ioos:station:USF.COMPS:ARP:1,2017-06-01T19:24:00Z,28.4330,-82.6670,10.0,4.39,300.23,5.39,'1111122,1111122,1111122' 
COMPS,ioos:station:USF.COMPS:ARP:1,2017-06-01T19:30:00Z,28.4330,-82.6670,10.0,4.36,301.4,5.58,'1111122,1111122,1111122' 